Flag for U.S.A. Weather past 2 weeks in Dallas, Texas, U.S.A.

Now
79 °F

Passing clouds.


Feels Like: 81 °F
Forecast: 72 / 91 °F
Wind: 9 mph from South

Location: Dallas Love Field

Current Time: Oct 1, 2014 at 1:40:02 AM

Latest Report: Oct 1, 2014 at 12:53 AM


Visibility: 10 mi

Pressure: 29.75 "Hg

Humidity: 69%

Dew point: 68 °F

Location of DallasLocation

Historic Weather in Dallas — Graph

°F

Dallas temperature yesterday

Maximum temperature yesterday: 91 °F (at 3:53 PM)
Minimum temperature yesterday: 72 °F (at 5:53 AM)
Average temperature yesterday: 81 °F

Past Weeks' High & Low Weather Summary

 TemperatureHumidityPressure
High95 °F (Sep 21, 4:53 PM)93% (Sep 20, 5:53 AM)30.19 "Hg (Sep 20, 5:53 AM)
Low61 °F (Sep 24, 6:53 AM)21% (Sep 24, 3:53 PM)29.72 "Hg (Sep 30, 5:53 PM)
Average79 °F57%30.00 "Hg
* Reported Sep 15 11:53 PM — Sep 30 11:53 PM, Dallas, Weather by CustomWeather, © 2014

Note: Actual official high and low records may vary slightly from our data, if they occured in-between our weather recording intervals... More about our weather records

Advertising

Dallas weather history for previous 24 hours

 ConditionsComfort  
Time TempWeatherWind HumidityBarometerVisibility
11:53 PM
Sep 30
80 °FClear.14 mph67%29.74 "Hg10 mi
10:53 PM82 °FClear.13 mph63%29.75 "Hg10 mi
9:53 PM83 °FPassing clouds.14 mph59%29.75 "Hg10 mi
8:53 PM84 °FPassing clouds.14 mph53%29.74 "Hg10 mi
7:53 PM87 °FScattered clouds.13 mph46%29.73 "Hg10 mi
6:53 PM88 °FScattered clouds.15 mph45%29.73 "Hg10 mi
5:53 PM89 °FScattered clouds.13 mph43%29.72 "Hg10 mi
4:53 PM88 °FBroken clouds.12 mph45%29.73 "Hg10 mi
3:53 PM91 °FBroken clouds.14 mph42%29.75 "Hg10 mi
2:53 PM90 °FBroken clouds.15 mph42%29.77 "Hg10 mi
1:53 PM89 °FBroken clouds.9 mph45%29.80 "Hg10 mi
12:53 PM87 °FBroken clouds.7 mph51%29.83 "Hg10 mi
11:53 AM85 °FBroken clouds.7 mph57%29.86 "Hg10 mi
10:53 AM83 °FBroken clouds.10 mph63%29.87 "Hg10 mi
9:53 AM79 °FPartly sunny.8 mph69%29.88 "Hg10 mi
8:53 AM76 °FScattered clouds.6 mph77%29.88 "Hg10 mi
7:53 AM73 °FPartly cloudy.7 mph79%29.89 "Hg10 mi
6:53 AM72 °FPartly cloudy.6 mph81%29.88 "Hg10 mi
5:53 AM72 °FPassing clouds.5 mph78%29.87 "Hg10 mi
4:53 AM73 °FPassing clouds.3 mph76%29.87 "Hg10 mi
3:53 AM74 °FPassing clouds.6 mph74%29.87 "Hg10 mi
2:53 AM73 °FPassing clouds.8 mph76%29.88 "Hg10 mi
1:53 AM75 °FPassing clouds.5 mph69%29.88 "Hg10 mi
Weather by CustomWeather, © 2014

See weather overviewHow to use our weather pages